Miscellaneous Local Product
Issued by NWS North Platte, NE

Home | Current Version | Previous Version | Text Only | Print | Product List | Glossary On
Versions: 1 2 3 4 5 6 7 8 9 10 11 12 13 14 15 16 17 18 19 20 21 22 23 24 25 26 27 28 29 30 31 32 33 34 35 36 37 38 39 40 41 42 43 44 45 46 47 48 49 50
000
AXUS43 KLBF 231610
MISLBF


WESTERN AND NORTH CENTRAL NEBRASKA HOURLY WEATHER ROUNDUP
NATIONAL WEATHER SERVICE NORTH PLATTE NE
1100 AM CDT SAT AUG 23 2014

***STATIONS NOT REPORTING VARIABLES SUCH AS SKY/WEATHER OR
PRESSURE ARE PROVIDED BY THE NEBRASKA DEPARTMENT OF
ROADS...RAWS...AND APRS NETWORKS...AND ARE NOT UNDER
NATIONAL WEATHER SERVICE QUALITY CONTROL***

...OBSERVATIONS IN AND NEAR THE EASTERN PANHANDLE OF NEBRASKA...

CITY           SKY/WX    TMP DP  RH WIND       PRES   REMARKS
PINE RIDGE     CLOUDY    65  62  90 CALM      29.87S
CHADRON        CLOUDY    66  61  84 W3        29.87S
ALLIANCE       PTSUNNY   67  62  84 VRB5      29.89S
SIDNEY         PTSUNNY   72  61  68 W7        29.92S
WHITECLAY        N/A     66  60  80 S3          N/A
RUSHVILLE        N/A     67  62  86 W7          N/A
GORDON           N/A     67  67  99 S5          N/A
CRESCENT LAKE    N/A     65  61  88 CALM        N/A
LISCO            N/A     73  62  69 SW6         N/A
BIG SPRINGS      N/A     65  64  96 CALM        N/A
$$

...OBSERVATIONS IN NORTH CENTRAL NEBRASKA...

CITY           SKY/WX    TMP DP  RH WIND       PRES   REMARKS
VALENTINE      CLOUDY    72  67  84 S16       29.85F
THEDFORD       CLOUDY    72  66  82 SE10      29.88F
AINSWORTH      CLOUDY    72  66  80 SE13G21   29.87F
O`NEILL        LGT RAIN  70  68  93 SE10      29.90F
ORD            CLOUDY    72  67  84 SE9       29.85F
BROKEN BOW     CLOUDY    70  67  90 SE12      29.87F
BROWNLEE         N/A     73  68  83 S12         N/A
SPRINGVIEW       N/A     70  68  95 E3          N/A
ROSE             N/A     74  72  93 E17         N/A
NEWPORT          N/A     73  69  88 E13         N/A
SARGENT          N/A     69  67  94 SE5G12      N/A
COMSTOCK         N/A     76  73  91 E12         N/A
CHAMBERS         N/A     73  69  88 E7          N/A
EWING            N/A     71  70  96 CALM        N/A
$$

...OBSERVATIONS IN SOUTHWEST NEBRASKA AND FAR NORTHEAST COLORADO...

CITY           SKY/WX    TMP DP  RH WIND       PRES   REMARKS
WRAY             N/A     72  62  71 NW9       29.91S
IMPERIAL       CLOUDY    70  64  81 SE8       29.89R
OGALLALA       CLOUDY    69  64  86 CALM      29.88S
NORTH PLATTE   CLOUDY    68  65  90 SE7       29.87R
MCCOOK         PTSUNNY   73  67  81 S7        29.86S
LEXINGTON      CLOUDY    73  69  90 SE7       29.86S
PAXTON           N/A     69  67  94 E5          N/A
SUTHERLAND       N/A     72  70  93 E8          N/A
BRADY            N/A     67  65  95 CALM        N/A
GOTHENBURG       N/A     67  64  90 E5          N/A
CALLAWAY         N/A     67  67  99 SE9         N/A
$$

...SOME WEATHER OBSERVATIONS FROM AROUND THE REGION...

CITY           SKY/WX    TMP DP  RH WIND       PRES   REMARKS
DENVER         MOSUNNY   67  57  70 VRB5      29.97S
LARAMIE        MOSUNNY   58  40  51 SW21G26   30.03F
CHEYENNE       SUNNY     67  46  47 W8        29.98F
SCOTTSBLUFF    PTSUNNY   70  60  70 SW10      29.89F
RAPID CITY     MOSUNNY   70  62  76 NE8       29.86F
PIERRE         CLOUDY    70  69  97 SE17      29.80F
WINNER         CLOUDY    73  66  78 SE16      29.84R
SIOUX FALLS    CLOUDY    73  69  87 SE10      29.90F
OMAHA          CLOUDY    79  69  71 SE16      29.87F
GRAND ISLAND   CLOUDY    76  69  79 SE13G21   29.86F
KANSAS CITY    MOSUNNY   86  71  60 S8        29.92F HX  91
WICHITA        SUNNY     88  57  34 S15       29.91S
HAYS           SUNNY     84  64  51 S17       29.87S
LIBERAL        PTSUNNY   82  63  51 SW21      29.93S
GOODLAND       PTSUNNY   72  64  76 CALM      29.91R
$$



USA.gov is the U.S. government's official web portal to all federal, state and local government web resources and services.